COSMOS 1862

Satellite information

Favourite Embed

Satellite Type and Status

PAYLOADIN ORBIT

Key statistics

Satellite COSMOS 1862 at a glance.

Uptime

14046

Days in orbit

Revolutions

≈ 15.3

Per day

Orbit

LEO

Low Earth Orbit

Inclination

82.5

Latest

Satellite identification and parameters

Extended collection of information and parameters for COSMOS 1862.

Object identification

Identified? True

Debris? False

Object name: COSMOS 1862

International designator: 1987-055A

Object number (NORAD): 18152

Object ID (CCSDS): 18152

Country: COMMONWEALTH OF INDEPENDENT STATES (CIS)

Current information (Y/N): Y

RCS size: LARGE

Orbital parameters

Period: 94.181 minutes

Inclination: 82.4855 deg

SMA: 6857.014 km

Apoapsis: 485.0 km

Periapsis: 472.757 km

RAAN: 134.4056 deg

Eccentricy: 0.00089278

Argument of periapsis: 325.424 deg

Mean anomaly: 34.6418 deg

Mean motion: 15.28974499 rev/day

Mean motion (dot): 0.000088 rev/day2

B* drag term: 0.00031131095 1/REarth

Two-line elements (TLE)

Creation date: Dec. 14, 2025, 3:07 a.m.

Reference frame: TEME

Reference center: EARTH

Epoch: Dec. 13, 2025, 3:54 p.m. UTC

TLE line 0: 0 COSMOS 1862

TLE line 1: 1 18152U 87055A 25347.66271083 .00008800 00000-0 31131-3 0 9994

TLE line 2: 2 18152 82.4855 134.4056 0008928 325.4240 34.6418 15.28974499 76682

Live tracking on map

Real-time ground track for satellite COSMOS 1862.

In-orbit conjunctions

A list of the most updated potential collisions computed for object COSMOS 1862.

Target Orbit TCA Probability of collision Miss distance Type
OBJECT Z SSO 2025-05-07 18:24:16 0.003552275 163.0 (m) UNKNOWN
FENGYUN 1C DEB SSO 2025-04-12 19:23:07 0.000250417 99.0 (m) DEBRIS
PEGASUS DEB LEO 2024-06-30 00:35:56 0.001064007 88.0 (m) DEBRIS

Associated space launch

Tselina-D satellites provided detailed observation of radio sources detected by the smaller Tselina-O satellites as part of the Tselina ELINT system.

COSMOS 1862 was lifted into orbit during the mission ‘Tsiklon-3 | Tselina-D 61’, on board a Tsiklon-3 space rocket.

The launch took place on July 1, 1987, 7:35 p.m. from 32/2.

For more information about the launch, click the button.

Launch to space Tsiklon-3 | Tselina-D 61
Tsiklon-3 | Tselina-D 61

Agency: N/A

Status: Launch Successful

Launch date: July 1, 1987, 7:35 p.m. UTC

Rocket: Tsiklon-3

Launch pad: 32/2

Location: Plesetsk Cosmodrome, Russian Federation

...

Latest news about this satellite

There are no fresh news available about this satellite. Check back as we update our databases every day.


Newsletter sign-up

Weekly statistics, charts and insights to help you stay on top of the space industry.